Date,TemperatureHighF,TemperatureAvgF,TemperatureLowF,DewpointHighF,DewpointAvgF,DewpointLowF,HumidityHigh,HumidityAvg,HumidityLow,PressureMaxIn,PressureMinIn,WindSpeedMaxMPH,WindSpeedAvgMPH,GustSpeedMaxMPH,PrecipitationSumIn
2013-1-1,19,4,-12,16,0,-15,88,84,75,30.38,30.14,13,4,17,0.00
2013-1-2,21,16,13,18,13,11,93,91,84,30.15,30.02,12,4,17,0.00
2013-1-3,20,11,7,16,8,3,89,85,77,30.34,30.14,14,11,20,0.00
2013-1-4,27,20,14,18,14,11,93,79,67,30.19,30.09,16,7,20,0.00
2013-1-5,21,15,9,15,12,7,92,85,74,30.14,29.91,13,5,18,0.00
2013-1-6,19,13,8,15,10,4,92,85,76,30.29,30.08,12,6,20,0.00
2013-1-7,34,28,19,27,22,15,91,81,72,30.11,29.95,22,10,30,0.00
2013-1-8,34,26,16,29,23,14,94,87,78,30.01,29.80,14,5,23,0.00
2013-1-9,33,30,25,28,24,20,87,77,68,30.40,29.96,27,11,36,0.00
2013-1-10,40,35,28,33,26,21,96,71,49,30.33,29.75,14,8,22,0.23
2013-1-11,40,36,34,39,35,33,97,96,95,29.76,29.39,13,5,17,0.22
2013-1-12,38,14,3,36,10,-2,94,81,74,30.14,29.40,32,17,42,0.01
2013-1-13,8,4,1,3,-1,-3,85,81,76,30.33,30.12,12,8,19,0.00
2013-1-14,13,7,4,8,3,1,87,82,70,30.49,30.33,15,6,20,0.00
2013-1-15,29,20,10,19,14,7,88,76,62,30.36,29.90,17,9,26,0.00
2013-1-16,36,25,10,32,21,2,95,83,63,30.27,29.71,19,12,27,0.00
2013-1-17,18,10,1,12,4,-4,84,74,61,30.46,30.26,12,5,16,0.00
2013-1-18,40,30,16,33,25,12,91,81,69,30.36,29.78,16,8,21,0.00
2013-1-19,38,24,2,32,19,-5,94,80,61,30.28,29.70,44,16,61,0.00
2013-1-20,7,2,-2,2,-4,-9,82,73,64,30.48,30.28,23,13,33,0.00
2013-1-21,-2,-6,-11,-9,-13,-18,82,73,68,30.45,30.38,20,14,28,0.00
2013-1-22,6,-3,-10,-1,-10,-15,81,74,68,30.51,30.35,9,4,12,0.00
2013-1-23,15,8,-3,9,0,-14,88,71,55,30.68,30.24,26,10,42,0.00
2013-1-24,14,3,-5,2,-8,-15,67,61,51,30.76,30.27,14,7,22,0.00
2013-1-25,19,12,3,13,5,-3,80,72,58,30.27,30.03,25,14,46,0.00
2013-1-26,25,12,-1,13,4,-4,86,70,53,30.32,30.07,12,5,17,0.00
2013-1-27,32,30,25,31,24,13,96,78,58,30.07,29.79,9,5,21,0.11
2013-1-28,34,32,30,33,30,29,97,96,93,29.88,29.63,11,3,16,0.09
2013-1-29,34,32,28,31,29,22,97,91,82,29.72,29.52,15,8,22,0.05
2013-1-30,28,17,8,23,12,4,86,80,75,29.77,29.63,24,16,33,0.01
2013-1-31,8,-2,-7,4,-8,-14,82,76,72,30.35,29.77,26,18,35,0.00
2013-2-1,8,-3,-12,5,-8,-17,88,77,64,30.39,30.10,12,5,21,0.00
2013-2-2,11,6,1,8,2,-3,88,82,71,30.24,30.01,9,3,13,0.00
2013-2-3,13,9,4,8,5,-1,89,83,72,30.14,29.99,17,6,28,0.00
2013-2-4,16,9,1,13,3,-2,90,77,58,30.11,29.80,10,3,16,0.00
2013-2-5,29,21,5,26,17,2,94,85,70,30.10,29.70,18,10,24,0.00
2013-2-6,30,16,0,24,12,-3,91,86,79,30.14,29.94,13,4,18,0.00
2013-2-7,26,24,20,23,21,18,94,88,80,30.26,29.98,8,4,18,0.00
2013-2-8,25,23,21,21,18,16,86,82,76,30.38,30.23,10,5,18,0.00
2013-2-9,32,28,25,29,25,21,93,88,84,30.23,29.92,15,8,24,0.00
2013-2-10,34,31,28,33,29,25,97,94,89,29.92,29.25,18,9,27,0.12
2013-2-11,29,24,16,28,20,11,97,85,79,30.06,29.32,29,19,39,0.03
2013-2-12,34,23,14,26,18,10,89,82,66,30.06,29.82,16,8,19,0.00
2013-2-13,38,27,15,32,24,13,95,86,70,29.82,29.56,10,5,13,0.04
2013-2-14,33,25,11,32,20,3,96,81,53,30.20,29.56,18,10,25,0.04
2013-2-15,14,8,1,5,2,-2,86,77,63,30.34,30.19,14,8,20,0.00
2013-2-16,18,8,1,9,3,-2,89,81,64,30.32,30.14,8,2,11,0.00
2013-2-17,32,22,9,25,16,4,87,77,67,30.16,29.63,15,8,26,0.00
2013-2-18,33,22,4,31,18,0,92,82,73,29.82,29.52,28,14,37,0.00
2013-2-19,4,1,-3,1,-5,-9,85,76,67,30.43,29.82,26,17,35,0.00
2013-2-20,15,3,-10,6,-4,-14,83,74,62,30.53,30.43,9,2,12,0.00
2013-2-21,21,13,2,12,6,-2,84,74,63,30.47,30.09,17,7,22,0.00
2013-2-22,26,22,18,21,18,12,93,87,72,30.10,29.88,16,6,18,0.03
2013-2-23,24,18,8,20,15,5,94,88,82,29.99,29.87,9,4,11,0.01
2013-2-24,33,17,0,22,12,-3,93,81,62,30.13,29.98,4,1,7,0.01
2013-2-25,35,26,15,25,22,13,93,82,63,30.12,30.03,3,0,6,0.01
2013-2-26,35,25,9,27,21,6,94,84,73,30.05,29.88,10,4,15,0.00
2013-2-27,39,31,26,26,25,21,85,77,56,30.02,29.86,16,7,24,0.00
2013-2-28,29,27,24,23,21,17,85,77,70,30.21,30.02,11,5,14,0.00
2013-3-1,28,23,17,19,16,12,81,73,64,30.36,30.21,10,6,14,0.00
2013-3-2,28,18,5,14,9,2,93,70,42,30.37,30.20,6,1,10,0.00
2013-3-3,31,24,16,15,11,9,73,58,39,30.21,29.97,13,7,19,0.00
2013-3-4,27,24,22,21,19,14,93,80,59,30.03,29.93,19,11,25,0.00
2013-3-5,29,24,19,25,22,16,94,90,80,30.31,29.97,13,6,17,0.01
2013-3-6,29,21,11,19,16,7,92,81,66,30.43,30.31,17,4,20,0.01
2013-3-7,29,16,0,20,11,-3,91,80,68,30.41,30.30,14,4,19,0.00
2013-3-8,36,27,15,29,22,13,92,82,71,30.34,30.08,12,6,18,0.01
2013-3-9,37,35,33,35,33,28,97,93,79,30.08,29.67,12,6,18,0.77
2013-3-10,34,32,29,33,29,25,97,88,82,29.93,29.76,14,8,26,0.12
2013-3-11,29,26,20,25,22,16,86,83,73,29.86,29.75,17,10,21,0.01
2013-3-12,26,22,19,20,17,14,87,78,65,30.21,29.84,25,14,32,0.00
2013-3-13,27,19,10,19,13,7,89,80,65,30.42,30.21,15,5,22,0.00
2013-3-14,40,30,23,27,24,18,93,78,57,30.28,30.02,11,4,14,0.03
2013-3-15,33,30,26,31,28,23,94,91,87,30.02,29.80,11,5,15,0.01
2013-3-16,26,20,13,25,15,6,94,80,64,30.26,29.88,14,9,20,0.01
2013-3-17,28,17,8,21,9,1,79,69,60,30.29,29.88,16,9,23,0.00
2013-3-18,30,21,11,28,17,7,94,85,77,29.90,29.62,34,20,48,0.00
2013-3-19,19,11,5,7,3,0,83,70,47,30.25,29.85,26,18,36,0.00
2013-3-20,17,10,5,6,1,-3,73,65,57,30.28,30.16,22,15,33,0.00
2013-3-21,24,13,-2,11,4,-5,87,70,53,30.18,30.07,7,2,9,0.00
2013-3-22,34,18,2,17,10,0,90,71,45,30.13,30.06,6,1,10,0.00
2013-3-23,33,24,13,22,17,9,90,75,54,30.17,30.10,9,3,12,0.00
2013-3-24,32,28,23,25,22,20,91,80,62,30.12,29.98,9,4,15,0.00
2013-3-25,34,28,21,24,19,15,84,70,56,30.23,30.04,15,9,20,0.00
2013-3-26,34,25,19,24,20,15,87,79,64,30.31,30.23,11,5,15,0.00
2013-3-27,40,28,15,25,18,13,94,70,42,30.36,30.30,5,1,10,0.00
2013-3-28,40,31,18,28,22,16,93,73,54,30.35,30.27,7,3,12,0.00
2013-3-29,48,39,30,39,32,25,87,76,61,30.28,30.04,9,4,15,0.00
2013-3-30,47,41,33,43,36,-100,95,85,70,30.04,29.83,14,8,20,0.05
2013-3-31,36,32,23,31,26,15,96,78,53,30.09,29.80,30,15,39,0.01
2013-4-1,31,24,17,20,15,12,79,69,55,30.28,30.09,18,13,27,0.00
2013-4-2,34,27,20,20,17,14,86,68,46,30.37,30.27,16,7,21,0.00
2013-4-3,45,34,21,33,24,18,93,68,47,30.40,30.06,19,7,29,0.00
2013-4-4,47,41,32,36,30,26,85,66,44,30.14,30.00,23,12,34,0.00
2013-4-5,40,33,27,32,26,19,94,77,51,30.22,29.85,16,7,25,0.02
2013-4-6,56,42,34,47,36,30,93,78,64,29.88,29.46,17,11,26,0.11
2013-4-7,47,40,33,41,35,31,92,84,71,29.92,29.72,12,5,17,0.12
2013-4-8,46,42,39,43,40,37,96,92,86,29.99,29.64,10,5,16,0.36
2013-4-9,41,37,32,37,33,29,94,86,68,30.13,29.92,20,10,32,0.49
2013-4-10,35,32,29,31,28,23,96,83,66,30.16,29.89,25,12,36,0.11
2013-4-11,35,32,29,32,30,26,97,92,69,29.88,29.65,21,12,31,0.11
2013-4-12,33,29,26,30,28,25,97,93,82,29.84,29.66,12,6,18,0.04
2013-4-13,37,30,27,28,26,24,96,83,61,29.95,29.84,15,6,19,0.01
2013-4-14,37,32,28,36,29,24,97,90,75,29.94,29.45,26,11,35,0.00
2013-4-15,38,34,31,34,29,25,93,80,72,29.97,29.53,25,16,36,0.00
2013-4-16,42,35,31,30,28,26,85,75,57,30.30,29.97,16,8,22,0.00
2013-4-17,39,36,34,34,31,28,95,83,75,30.30,29.88,16,8,24,0.24
2013-4-18,33,31,30,32,30,29,97,96,92,29.91,29.51,22,11,30,0.27
2013-4-19,36,32,29,29,25,20,97,78,56,29.99,29.49,28,18,38,0.01
2013-4-20,40,30,19,20,17,11,88,60,34,30.29,29.99,10,3,14,0.03
2013-4-21,50,41,32,46,36,19,94,84,56,30.30,29.98,16,9,29,0.14
2013-4-22,41,35,31,38,32,30,97,90,72,30.17,30.08,12,6,17,0.27
2013-4-23,38,32,26,30,26,23,97,79,54,30.16,30.06,15,9,21,0.10
2013-4-24,47,35,26,35,29,23,93,78,45,30.08,29.89,24,10,34,0.03
2013-4-25,50,39,31,34,30,27,89,72,43,30.20,29.98,19,9,30,0.00
2013-4-26,68,56,44,48,41,32,74,58,33,30.08,29.94,19,9,27,0.01
2013-4-27,73,58,39,47,41,35,91,56,30,30.09,29.85,13,4,20,0.00
2013-4-28,79,62,50,55,48,45,83,61,31,29.85,29.57,24,10,38,0.11
2013-4-29,73,61,48,57,48,38,87,64,45,29.75,29.47,10,4,15,0.11
2013-4-30,68,63,56,59,47,31,82,59,28,29.90,29.34,24,11,31,0.00
2013-5-1,55,39,32,38,34,30,96,85,50,30.45,29.90,18,8,25,0.31
2013-5-2,44,38,34,35,29,25,91,69,49,30.53,30.40,18,10,30,0.03
2013-5-3,37,33,31,33,29,24,95,84,65,30.40,30.14,11,6,21,0.07
2013-5-4,49,38,32,42,35,29,95,89,77,30.15,30.09,7,4,14,0.07
2013-5-5,62,48,38,50,42,35,92,80,61,30.15,30.04,8,4,13,0.01
2013-5-6,73,59,42,51,46,40,96,68,37,30.08,29.95,7,1,11,0.00
2013-5-7,75,64,48,55,49,46,93,60,36,30.01,29.88,8,2,13,0.00
2013-5-8,75,63,55,56,52,47,94,67,39,29.94,29.85,9,2,13,0.15
2013-5-9,60,54,45,56,49,30,93,84,58,30.04,29.88,16,7,25,0.18
2013-5-10,65,50,37,41,28,-100,77,48,22,30.07,29.84,9,4,18,0.02
2013-5-11,55,46,41,40,27,-100,73,50,32,30.15,29.83,30,18,43,0.00
2013-5-12,56,44,32,32,23,15,75,47,20,30.21,30.06,16,7,25,0.00
2013-5-13,74,56,39,49,34,22,56,44,32,30.08,29.60,15,6,26,0.00
2013-5-14,96,74,53,53,46,27,76,42,13,29.62,29.36,28,11,42,0.00
2013-5-15,76,64,52,50,46,43,73,53,34,29.85,29.59,23,9,30,0.00
2013-5-16,80,64,54,50,27,-100,69,44,26,29.85,29.75,18,6,25,0.00
2013-5-17,68,57,54,56,46,-100,95,82,32,29.91,29.80,15,10,24,0.41
2013-5-18,79,65,55,66,60,54,97,83,59,29.96,29.71,15,8,25,1.08
2013-5-19,78,69,63,67,64,61,96,84,65,29.71,29.45,19,7,34,0.73
2013-5-20,70,65,58,63,59,55,94,82,65,29.50,29.41,19,8,28,0.22
2013-5-21,66,58,51,58,55,49,95,88,65,29.63,29.43,16,6,19,0.20
2013-5-22,51,48,45,49,47,44,97,94,90,29.92,29.62,9,5,18,0.25
2013-5-23,61,53,44,45,37,30,88,59,32,30.29,29.95,15,5,19,0.03
2013-5-24,66,54,37,50,40,30,87,61,40,30.34,30.11,12,5,19,0.18
2013-5-25,57,54,52,50,48,43,91,81,69,30.21,30.15,18,10,28,0.22
2013-5-26,55,52,50,50,45,41,84,76,67,30.17,29.97,21,12,36,0.00
2013-5-27,58,55,52,55,52,49,96,89,82,29.99,29.77,19,10,28,0.02
2013-5-28,59,55,52,57,53,51,97,94,90,29.78,29.66,10,4,17,0.06
2013-5-29,73,63,52,69,61,51,98,92,84,29.75,29.56,14,6,23,0.55
2013-5-30,74,68,63,65,63,60,94,84,69,29.60,29.43,17,9,32,0.40
2013-5-31,75,67,62,61,56,51,91,69,44,29.48,29.43,30,11,42,0.14
2013-6-1,69,59,51,59,53,44,89,80,69,29.87,29.47,20,7,28,0.06
2013-6-2,64,55,46,48,42,40,89,64,43,30.03,29.88,13,5,20,0.06
2013-6-3,67,58,44,48,45,40,95,63,40,30.02,29.86,12,3,20,0.00
2013-6-4,61,58,54,53,50,47,91,75,60,30.01,29.92,16,8,22,0.00
2013-6-5,65,56,53,58,53,49,96,89,73,29.99,29.87,16,4,26,0.02
2013-6-6,56,53,50,54,50,48,95,92,88,29.99,29.91,9,3,13,0.02
2013-6-7,64,57,52,53,51,50,95,82,63,30.01,29.86,5,1,8,0.00
2013-6-8,69,62,55,55,53,51,91,74,54,29.86,29.80,10,4,14,0.00
2013-6-9,67,60,56,63,57,54,95,90,78,29.82,29.68,20,11,29,0.15
2013-6-10,72,64,59,63,60,58,97,88,70,29.79,29.73,8,2,12,0.07
2013-6-11,77,66,56,69,63,55,97,89,75,29.83,29.71,8,2,15,0.01
2013-6-12,70,66,61,65,63,55,96,89,78,29.85,29.70,11,6,17,2.13
2013-6-13,76,67,57,59,55,50,82,65,47,30.03,29.85,10,4,16,0.01
2013-6-14,77,68,56,62,58,52,88,70,57,30.00,29.79,16,7,25,0.03
2013-6-15,75,69,63,68,64,60,95,85,72,29.83,29.77,12,4,21,0.34
2013-6-16,84,69,58,62,56,47,96,67,30,29.86,29.78,16,5,25,0.01
2013-6-17,79,70,60,59,56,52,85,63,42,29.92,29.80,14,6,21,0.01
2013-6-18,74,66,58,61,56,52,81,71,53,30.02,29.92,9,4,14,0.00
2013-6-19,83,72,60,64,58,55,83,64,41,29.99,29.85,9,4,18,0.00
2013-6-20,88,76,70,67,63,59,76,65,42,29.91,29.82,12,6,22,0.00
2013-6-22,79,75,67,71,69,64,91,81,74,29.87,29.76,8,3,11,0.73
2013-6-23,80,74,68,70,67,65,96,81,61,29.80,29.60,18,9,26,0.36
2013-6-24,79,71,63,71,66,62,96,86,71,29.83,29.71,13,3,21,0.01
2013-6-25,83,74,65,75,69,62,93,83,71,29.75,29.62,11,5,17,0.00
2013-6-26,85,77,70,75,70,64,96,80,56,29.73,29.56,16,6,23,0.00
2013-6-27,83,76,67,67,62,55,89,65,38,29.74,29.70,24,9,37,0.00
2013-6-28,76,71,65,62,59,57,78,67,58,29.73,29.67,25,15,35,0.00
2013-6-29,75,67,61,62,58,51,94,73,45,29.90,29.67,9,5,19,0.38
2013-6-30,79,68,55,59,52,46,87,61,36,30.04,29.90,8,2,15,0.05
2013-7-1,81,70,57,62,56,51,93,65,37,30.11,30.04,10,1,11,0.00
2013-7-2,81,71,58,60,54,51,87,59,37,30.08,29.97,8,2,13,0.00
2013-7-3,83,70,56,62,55,48,96,63,30,30.00,29.87,7,1,15,0.00
2013-7-4,87,76,64,62,57,54,79,55,33,29.88,29.78,15,6,23,0.00
2013-7-5,86,78,69,65,61,56,69,57,46,29.81,29.71,20,8,29,0.00
2013-7-6,89,78,73,67,63,61,69,60,45,29.78,29.70,13,7,20,0.00
2013-7-7,90,80,71,73,68,65,91,67,52,29.77,29.70,13,5,20,0.01
2013-7-8,86,75,67,70,67,-100,96,79,52,29.89,29.77,6,2,10,0.01
2013-7-9,81,76,68,72,69,65,96,80,68,29.86,29.67,22,9,40,0.22
2013-7-10,78,69,60,66,56,-100,88,68,45,29.98,29.83,17,8,26,0.12
2013-7-11,84,71,58,63,58,54,96,67,37,30.04,29.90,8,3,16,0.00
2013-7-12,86,77,68,64,60,56,71,57,43,29.93,29.81,16,8,34,0.00
2013-7-13,76,71,64,69,64,59,96,79,57,29.98,29.83,18,9,29,4.28
2013-7-14,84,75,69,71,66,61,90,72,55,30.09,29.97,10,4,18,0.12
2013-7-15,86,77,68,73,67,64,87,72,52,30.15,30.07,9,3,14,0.00
2013-7-16,88,80,73,74,72,70,90,76,56,30.12,30.07,14,6,19,0.00
2013-7-17,89,82,72,74,71,69,91,72,53,30.16,30.01,12,4,18,0.00
2013-7-18,90,83,75,74,71,69,84,69,52,30.01,29.68,17,10,27,0.00
2013-7-19,81,77,70,71,65,59,87,68,48,29.80,29.63,18,10,25,0.05
2013-7-20,79,70,62,66,60,-100,90,74,56,29.87,29.79,6,2,12,0.05
2013-7-21,78,69,60,70,62,54,88,77,65,29.87,29.71,12,6,17,0.01
2013-7-22,83,73,65,72,65,58,92,77,56,29.77,29.60,20,9,28,0.01
2013-7-23,74,66,58,59,55,51,90,68,46,29.95,29.77,12,3,20,0.00
2013-7-24,76,65,57,61,57,53,93,75,56,30.01,29.91,5,1,9,0.00
2013-7-25,82,71,61,69,63,56,87,76,55,29.91,29.82,10,5,18,0.02
2013-7-26,68,63,57,64,56,49,94,79,62,30.01,29.83,21,10,31,0.10
2013-7-27,61,56,50,51,48,45,92,76,56,30.02,29.89,20,7,31,0.01
2013-7-28,70,58,48,56,50,45,91,75,54,30.01,29.91,13,5,19,0.00
2013-7-29,75,63,49,60,54,48,96,74,49,30.07,30.01,8,2,12,0.00
2013-7-30,70,66,62,65,61,56,93,84,67,30.03,29.97,4,2,9,0.03
2013-7-31,77,66,58,66,60,54,96,82,53,30.01,29.92,18,5,29,0.06
2013-8-1,81,68,53,64,56,50,91,68,44,29.98,29.79,7,2,12,0.01
2013-8-2,73,66,56,61,55,51,91,69,46,29.97,29.78,11,3,17,0.00
2013-8-3,74,64,50,58,53,48,96,70,42,30.11,29.97,11,2,15,0.00
2013-8-4,71,62,50,59,54,48,95,77,53,30.16,29.95,5,1,8,0.00
2013-8-5,78,67,60,68,62,56,94,84,68,29.96,29.72,9,4,13,0.79
2013-8-6,82,68,54,68,62,53,96,82,56,29.78,29.61,26,5,37,0.05
2013-8-7,72,64,58,59,56,50,96,76,46,29.97,29.71,15,5,21,0.05
2013-8-8,71,61,52,62,56,51,95,85,62,30.00,29.93,9,2,14,0.02
2013-8-9,71,64,55,59,55,51,96,75,51,30.06,29.94,16,6,24,0.02
2013-8-10,73,65,57,60,56,50,93,74,50,30.12,30.02,8,2,15,0.01
2013-8-11,80,68,62,66,62,57,93,81,60,30.02,29.92,5,1,8,0.00
2013-8-12,76,68,59,64,58,53,96,74,48,29.98,29.93,14,5,21,0.00
2013-8-13,73,63,54,56,50,-100,93,69,41,30.12,29.98,9,2,18,0.00
2013-8-14,74,61,48,56,51,46,95,73,41,30.15,30.04,9,2,13,0.00
2013-8-15,76,59,53,61,44,-100,92,74,46,30.07,30.01,6,1,11,0.00
2013-8-16,76,64,54,61,53,-100,95,74,47,30.14,30.07,9,2,12,0.00
2013-8-17,79,67,55,59,54,-100,93,69,44,30.14,30.03,14,4,19,0.00
2013-8-18,79,69,59,61,58,54,86,68,48,30.06,29.93,16,5,22,0.00
2013-8-19,83,70,64,70,54,-100,84,74,61,29.96,29.81,12,6,17,0.00
2013-8-20,86,77,70,74,68,-100,84,76,64,29.83,29.76,13,6,21,0.00
2013-8-21,84,76,72,75,71,68,95,86,74,29.90,29.75,10,4,13,0.21
2013-8-22,85,74,64,70,59,55,95,63,39,30.03,29.89,10,3,19,0.05
2013-8-23,82,72,60,69,62,54,87,73,60,30.07,29.96,10,4,16,0.00
2013-8-24,86,77,70,73,67,-100,85,75,59,29.98,29.85,19,9,31,0.00
2013-8-25,90,83,76,76,73,70,82,73,61,29.92,29.84,17,12,26,0.00
2013-8-26,91,83,75,78,74,72,90,76,61,29.89,29.74,13,8,20,0.00
2013-8-27,91,80,73,76,73,70,90,79,61,29.75,29.70,9,4,15,0.00
2013-8-28,87,83,76,75,73,72,89,74,61,29.90,29.86,7,3,14,0.00
2013-8-29,90,81,74,76,72,69,93,76,52,29.90,29.75,12,5,20,0.00
2013-8-30,81,75,67,72,68,63,92,79,63,29.83,29.72,8,4,17,0.00
2013-8-31,85,72,61,71,64,-100,95,79,57,29.80,29.65,16,2,23,0.06
2013-9-1,71,67,60,66,61,57,91,81,66,29.91,29.66,16,8,24,0.06
2013-9-2,62,56,49,57,52,47,95,86,71,30.04,29.91,8,2,11,0.00
2013-9-3,76,60,45,61,53,44,96,81,52,30.06,29.95,6,2,10,0.01
2013-9-4,85,70,57,70,63,55,94,79,56,30.07,29.96,6,1,8,0.01
2013-9-5,81,70,61,70,62,55,88,76,63,30.13,30.02,9,5,14,0.00
2013-9-6,87,77,68,69,67,63,93,73,50,30.02,29.78,15,6,24,0.05
2013-9-7,89,78,67,73,66,-100,92,71,50,29.90,29.77,12,3,18,0.04
2013-9-8,78,70,65,68,64,60,88,81,71,29.95,29.80,14,7,21,0.00
2013-9-9,90,77,67,74,69,64,94,78,54,29.80,29.54,13,7,21,0.04
2013-9-10,78,72,65,70,65,63,93,80,61,29.91,29.67,10,4,15,0.03
2013-9-11,81,71,61,64,59,52,94,69,37,29.99,29.90,17,5,24,0.00
2013-9-12,72,63,52,56,50,45,90,65,42,30.16,29.99,17,5,28,0.00
2013-9-13,68,57,43,50,46,41,94,68,45,30.22,30.04,6,1,10,0.00
2013-9-14,71,59,50,55,47,-100,93,70,45,30.04,29.81,14,6,22,0.38
2013-9-15,64,57,51,56,53,46,95,86,69,30.26,29.81,10,4,18,0.75
2013-9-16,65,52,40,50,44,38,95,77,48,30.36,30.20,8,3,12,0.01
2013-9-17,65,55,46,57,50,43,93,83,68,30.22,29.89,14,7,24,0.02
2013-9-18,75,63,59,71,61,57,95,93,84,29.89,29.62,6,4,13,0.04
2013-9-19,76,71,64,70,66,55,95,85,76,29.72,29.56,13,5,32,0.21
2013-9-20,63,57,50,55,51,46,94,82,66,29.88,29.72,18,10,26,0.14
2013-9-21,63,52,44,49,44,-100,94,80,57,29.95,29.86,10,3,15,0.00
2013-9-22,74,59,46,56,51,43,93,75,54,29.91,29.78,14,7,22,0.00
2013-9-23,72,62,53,54,52,48,84,70,49,29.88,29.79,14,8,24,0.00
2013-9-24,75,61,49,56,52,46,91,74,47,29.90,29.84,9,4,14,0.00
2013-9-25,73,60,49,56,52,47,94,75,49,29.91,29.79,12,4,17,0.00
2013-9-26,80,67,56,62,56,51,85,70,51,29.85,29.74,19,9,28,0.00
2013-9-27,83,74,68,64,62,60,79,67,50,29.83,29.70,19,10,40,0.00
2013-9-28,73,60,47,63,53,-100,94,79,66,29.89,29.56,19,8,31,0.06
2013-9-29,75,60,45,48,45,41,90,61,34,29.92,29.74,13,6,24,0.01
2013-9-30,79,67,59,54,50,47,67,55,40,29.74,29.52,23,12,31,0.00
2013-10-1,65,55,49,43,40,36,77,58,34,29.93,29.83,3,1,5,0.00
2013-10-2,75,59,42,55,43,37,94,61,27,29.98,29.75,18,6,29,0.39
2013-10-3,60,58,56,58,56,54,95,94,90,29.86,29.74,19,4,25,0.34
2013-10-4,57,56,54,56,54,52,95,94,93,29.91,29.74,21,9,27,0.11
2013-10-5,60,53,40,59,49,39,95,86,64,29.81,29.69,19,6,26,0.13
2013-10-6,52,46,39,49,44,38,96,94,89,29.82,29.65,16,3,22,0.04
2013-10-7,67,51,41,48,42,39,94,75,39,29.93,29.81,7,2,15,0.03
2013-10-8,76,63,51,48,46,42,76,56,35,29.92,29.76,19,9,30,0.00
2013-10-9,75,64,57,53,50,47,74,60,40,29.97,29.86,15,9,23,0.00
2013-10-10,76,64,53,56,50,45,75,62,41,29.97,29.80,12,6,22,0.00
2013-10-11,73,64,55,61,54,51,87,71,53,29.80,29.55,22,12,37,0.04
2013-10-12,59,50,42,54,40,-100,87,72,47,30.15,29.64,27,11,36,0.04
2013-10-13,59,46,34,40,36,32,92,71,39,30.41,30.14,6,2,10,0.00
2013-10-14,53,47,39,47,39,35,91,73,56,30.36,29.88,16,7,26,0.41
2013-10-15,53,49,45,51,47,43,95,93,89,29.91,29.62,22,9,38,0.63
2013-10-16,52,45,39,43,40,33,94,83,58,29.93,29.78,13,6,20,0.01
2013-10-17,57,45,38,44,39,33,93,80,47,29.86,29.73,16,5,24,0.04
2013-10-18,50,42,36,39,34,29,94,75,45,29.96,29.83,13,6,20,0.08
2013-10-19,45,38,32,39,33,-100,93,85,74,29.83,29.67,14,6,25,0.01
2013-10-20,47,37,29,42,33,26,93,86,69,29.87,29.59,16,6,27,0.02
2013-10-21,38,34,27,34,25,21,88,69,56,29.95,29.86,19,9,31,0.01
2013-10-22,38,32,23,32,27,21,93,83,68,30.03,29.95,8,2,13,0.00
2013-10-23,37,33,29,30,26,21,91,76,57,30.10,30.00,15,6,25,0.00
2013-10-24,42,35,30,31,27,22,88,71,57,30.30,30.10,15,6,23,0.00
2013-10-25,58,48,25,42,36,23,93,65,52,30.28,29.78,20,13,28,0.00
2013-10-26,51,41,33,42,30,-100,80,67,54,30.08,29.78,21,11,30,0.00
2013-10-27,57,42,29,36,30,26,87,66,44,30.09,29.79,16,6,23,0.00
2013-10-28,42,36,32,31,25,-100,81,65,49,30.39,30.09,16,6,21,0.00
2013-10-29,41,37,31,36,29,22,90,74,65,30.38,30.07,11,6,17,0.02
2013-10-30,49,44,38,48,43,36,96,94,91,30.07,29.63,12,4,18,0.10
2013-10-31,49,42,38,48,40,36,96,93,89,29.63,29.37,14,8,19,0.05
2013-11-1,50,42,37,40,37,33,94,82,61,29.83,29.39,13,8,20,0.01
2013-11-2,48,39,32,37,32,-100,91,78,56,30.07,29.83,15,4,21,0.00
2013-11-3,53,44,35,36,33,30,87,67,46,30.09,29.84,22,10,41,0.00
2013-11-4,48,44,35,44,38,33,93,80,61,30.12,29.78,15,8,28,0.15
2013-11-5,42,35,28,35,31,26,94,86,62,30.22,30.00,12,2,19,0.02
2013-11-6,35,32,28,31,28,24,95,85,69,30.17,30.00,12,8,17,0.01
2013-11-7,33,29,26,30,27,24,94,90,86,30.24,30.17,13,5,19,0.00
2013-11-8,46,36,25,41,29,23,94,77,54,30.20,29.59,19,8,34,0.01
2013-11-9,45,40,34,41,32,-100,86,77,62,30.19,29.61,31,18,44,0.01
2013-11-10,38,36,32,32,30,27,85,77,71,30.32,30.08,16,7,24,0.00
2013-11-11,37,24,15,32,16,9,91,71,55,30.74,30.10,18,11,26,0.00
2013-11-12,27,18,9,15,10,6,88,74,52,30.81,30.47,11,6,16,0.00
2013-11-13,51,36,22,36,25,14,76,65,55,30.47,29.88,23,13,31,0.00
2013-11-14,51,39,34,40,33,29,89,79,66,29.87,29.73,9,6,14,0.00
2013-11-15,54,42,30,42,35,28,94,78,56,29.83,29.60,13,4,20,0.00
2013-11-16,51,44,41,49,40,-100,95,88,74,29.60,29.18,16,7,21,0.12
2013-11-17,43,39,31,40,35,26,94,86,80,29.82,29.28,32,15,44,0.01
2013-11-18,34,29,21,26,23,19,91,78,65,30.26,29.82,28,13,40,0.00
2013-11-19,46,35,20,32,26,18,93,72,54,30.26,29.90,15,9,34,0.00
2013-11-20,44,41,37,34,31,27,90,69,55,30.00,29.85,13,8,27,0.00
2013-11-21,37,30,24,35,27,17,94,88,75,30.51,30.00,17,10,23,0.00
2013-11-22,32,21,12,17,12,4,86,70,42,30.64,30.46,24,11,32,0.00
2013-11-23,17,10,6,6,2,-100,83,71,53,30.88,30.64,18,9,26,0.00
2013-11-24,30,18,4,18,9,0,84,68,54,30.76,30.03,26,12,38,0.00
2013-11-25,39,33,26,29,24,17,82,70,61,30.08,29.93,25,14,36,0.00
2013-11-26,30,20,11,22,9,3,77,61,52,30.40,30.07,26,16,38,0.00
2013-11-27,24,15,5,12,8,2,89,72,53,30.41,30.10,10,4,16,0.00
2013-11-28,26,21,11,16,13,7,89,71,64,30.53,30.09,15,6,21,0.00
2013-11-29,32,22,8,22,15,6,91,75,57,30.54,30.14,12,5,23,0.00
2013-11-30,36,31,26,28,24,-100,87,77,71,30.15,30.03,11,4,21,0.00
2013-12-1,34,26,17,27,22,15,93,85,75,30.19,29.92,4,1,6,0.00
2013-12-2,38,34,27,34,30,23,93,87,78,29.92,29.55,16,7,23,0.14
2013-12-3,34,33,32,33,32,30,95,94,92,29.75,29.55,10,4,15,0.07
2013-12-4,32,27,11,31,25,7,95,93,85,29.74,29.46,27,11,39,0.01
2013-12-5,11,4,-1,8,0,-6,87,82,76,30.41,29.74,27,16,38,0.00
2013-12-6,0,-4,-8,-5,-8,-12,84,81,76,30.73,30.40,12,6,17,0.00
2013-12-7,0,-7,-13,-7,-12,-100,84,79,69,30.81,30.65,10,3,13,0.00
2013-12-8,12,6,-4,9,3,-8,90,86,82,30.66,30.08,12,4,18,0.00
2013-12-9,10,0,-5,8,-4,-10,90,81,72,30.16,29.93,23,10,32,0.00
2013-12-10,15,7,1,12,3,-4,89,81,73,30.32,29.82,30,13,42,0.00
2013-12-11,8,-3,-9,2,-9,-13,81,75,69,30.62,30.30,19,8,26,0.00
2013-12-12,17,11,2,11,6,-4,86,80,74,30.37,30.17,10,4,16,0.00
2013-12-13,15,14,11,11,9,6,87,81,77,30.30,30.14,15,8,19,0.00
2013-12-14,12,9,0,8,4,-100,89,83,78,30.30,30.13,19,7,26,0.00
2013-12-15,3,1,-1,-2,-6,-8,79,74,65,30.20,30.15,12,5,18,0.00
2013-12-16,21,10,1,17,6,-6,92,83,72,30.18,29.96,12,6,20,0.00
2013-12-17,31,23,9,26,18,6,92,80,67,30.12,29.92,32,14,46,0.00
2013-12-18,36,24,7,28,19,4,92,81,65,30.09,29.65,17,7,26,0.00
2013-12-19,27,18,16,23,13,10,88,82,76,30.06,29.80,11,6,19,0.00
2013-12-20,18,16,14,14,13,11,89,87,83,30.03,29.88,10,3,14,0.00
2013-12-21,21,18,15,16,13,-100,88,83,78,30.00,29.88,7,3,13,0.00
2013-12-22,18,12,0,15,8,-4,88,86,83,30.29,29.96,14,9,21,0.00
2013-12-23,1,-4,-10,-3,-9,-15,84,78,73,30.58,30.29,17,11,22,0.00
2013-12-24,10,-1,-15,5,-7,-19,87,76,52,30.58,30.19,12,5,24,0.00
2013-12-25,28,17,9,24,13,5,91,85,69,30.19,30.08,23,8,31,0.00
2013-12-26,28,20,12,24,17,10,93,88,84,30.18,30.08,4,1,5,0.00
2013-12-27,39,29,12,32,26,10,94,86,73,30.18,29.91,20,7,26,0.01
2013-12-28,43,31,21,33,26,-100,94,84,63,29.99,29.62,25,7,37,0.01
2013-12-29,21,-1,-13,18,-8,-18,89,72,58,30.37,29.97,24,12,32,0.00
2013-12-30,1,-6,-15,-2,-10,-19,86,83,78,30.37,30.23,7,2,10,0.00
2013-12-31,0,-6,-12,-5,-10,-16,86,81,74,30.47,30.28,8,2,10,0.00
2014-1-1,1,-2,-8,-6,-9,-13,82,74,69,30.55,30.46,9,4,12,0.00
2014-1-2,1,-5,-12,-6,-12,-17,79,71,53,30.57,30.45,7,2,9,0.00